User: anonymous   Login
Location: Unspecified
(0.0000°N, 0.0000°E)
Time: 13:38:38
(UTC+00:00)
Language:

LAPAN-TUBSAT - Orbit

View from above orbital plane
View from above orbital plane
View from above satellite
View from above satellite

Ground track
Ground track

The orbit data is extracted from the following two-line orbital elements,

1 29709U 07001A   23268.15101915  .00001185  00000-0  15141-3 0  9999
2 29709  98.0318 236.1235 0012511 178.9180 181.2062 14.83295368903364
Epoch (UTC): 25 September 2023 03:37:28
Eccentricity: 0.0012511
inclination: 98.0318°
perigee height: 610 km
apogee height: 628 km
right ascension of ascending node: 236.1235°
argument of perigee: 178.9180°
revolutions per day: 14.83295368
mean anomaly at epoch: 181.2062°
orbit number at epoch: 90336

The dashed part of the orbit path shows where the satellite is in the earth's shadow,  

DLR